Temp_Advection
nan nan nan nan nan nan nan nan nan nan nan nan nan nan nan nan nan nan nan nan nan nan nan nan nan nan nan nan nan nan nan nan nan nan nan nan nan nan nan nan nan nan nan
nan -1 -1 -1 -1 -1 -0 -0 -0 -0 -0 -0 -0 -1 -1 -0 0 0 0 0 -0 1 0 1 0 0 1 0 0 0 -0 -0 -0 0 0 0 -0 -0 -0 -0 0 0 nan
nan -1 -1 -2 -1 -1 -1 -0 -0 -0 -1 -0 -0 -0 -0 -0 0 1 -0 -1 0 0 1 1 0 0 0 0 0 -0 -0 -0 -0 0 0 -0 -0 -0 0 0 0 0 nan
nan -0 -1 -2 -2 -1 -0 -0 -0 -1 -1 -1 -0 -1 -0 -0 -0 -1 -1 0 1 -0 2 1 -0 0 0 0 0 -0 0 0 -0 -0 -0 -0 0 -0 -0 -0 0 0 nan
nan -1 -1 -2 -1 -0 -0 0 -0 -1 -1 -0 -0 -0 1 -0 -1 1 1 1 0 0 1 0 0 0 -0 0 0 0 0 -0 -0 -0 0 -0 -0 -0 -0 -0 0 0 nan
nan -1 -1 -0 -1 -0 -0 -0 -0 -0 0 0 -0 0 1 0 0 0 1 1 0 -0 1 1 -0 -1 -0 0 0 0 0 -0 0 0 0 -0 -0 -0 -0 0 0 0 nan
nan -1 -1 -0 -0 -1 -0 -0 -0 -0 0 -0 0 1 0 -0 -1 -0 1 -0 -1 -0 1 -1 -1 -0 -0 -0 0 0 0 -0 0 1 1 0 -0 -0 0 0 0 0 nan
nan -1 -1 -1 -1 -0 -0 -0 -0 0 -0 -0 0 0 0 1 -0 -0 0 -0 -1 -0 1 -0 0 -1 -1 -0 0 0 0 -0 0 1 0 0 0 0 0 0 1 0 nan
nan -2 -1 -1 -1 -0 -0 -0 0 0 0 0 0 -0 0 0 -1 -0 0 0 -1 1 1 -0 -0 -1 -1 0 0 0 0 0 0 1 1 -0 -0 0 0 0 1 0 nan
nan -1 -0 -0 -1 -1 -0 0 1 1 1 0 0 -0 0 0 -1 -0 -0 -0 -0 1 -0 0 -1 -1 -0 0 0 0 -0 0 1 1 -0 -0 0 0 0 0 1 0 nan
nan -1 -0 -0 -0 -0 0 1 1 0 0 0 0 0 0 -1 -1 -0 -0 -0 -0 -1 0 -0 -1 -0 1 0 0 -0 -0 1 1 0 0 0 0 0 0 1 1 -0 nan
nan -0 -0 -0 -0 0 1 0 -1 -0 -0 -1 -0 0 0 -0 0 1 0 0 -0 0 0 -1 -0 1 0 0 0 -0 -0 0 0 0 1 -0 0 1 1 1 -0 -0 nan
nan -0 -0 0 -0 -0 -1 -1 -0 -0 -1 -0 -0 -0 0 0 0 0 0 0 -0 -0 -1 -0 1 0 -0 0 -0 -1 -1 0 1 1 -0 -0 1 1 0 0 0 -0 nan
nan -0 -0 -0 0 0 0 -0 0 0 0 0 0 0 -0 -0 -0 -0 0 -0 -0 0 -0 0 -0 -0 1 0 -0 -0 1 1 1 0 1 1 0 0 1 0 0 0 nan
nan -1 -0 1 2 1 0 0 -0 0 0 0 0 1 0 0 0 0 0 0 1 0 0 1 1 1 1 1 1 1 0 1 1 1 1 0 1 1 1 0 0 1 nan
nan 0 1 3 1 1 1 1 0 0 -0 0 0 0 0 0 0 0 0 0 0 0 1 1 1 1 1 1 0 0 0 1 1 0 0 1 2 2 1 0 1 1 nan
nan 2 3 3 1 0 0 0 0 0 0 0 -0 0 0 0 0 0 0 0 0 0 0 0 0 1 0 0 0 1 1 0 0 0 1 2 1 1 0 1 1 1 nan
nan 1 1 1 0 1 1 1 1 0 0 1 0 -0 -0 -0 -0 0 0 0 0 0 0 0 0 0 0 0 0 0 0 0 0 0 1 2 1 2 3 2 1 1 nan
nan 1 1 1 0 0 1 1 0 1 0 -0 -0 0 0 0 1 1 0 0 0 0 0 0 0 0 0 0 0 0 0 0 0 0 1 1 1 1 1 1 0 0 nan
nan 1 1 1 -0 -0 1 0 -0 -0 -0 -0 -0 0 0 0 0 0 0 0 0 0 0 -0 -0 -0 -0 -0 0 0 0 0 0 0 0 1 1 1 0 0 0 0 nan
nan 1 0 -1 -0 0 0 -1 -1 -1 -0 0 0 0 0 0 -0 -0 0 0 -0 -0 -0 -0 -0 -0 -0 -0 -0 -0 -0 -0 0 1 1 0 0 -0 1 0 0 2 nan
nan 0 -0 -1 -0 0 -0 -1 -1 -0 0 0 0 -0 -0 -0 -0 -0 -0 -0 -0 -0 -0 -0 -0 -0 -0 -0 -0 -0 0 0 -0 -0 1 0 0 1 0 1 1 1 nan
nan -0 -0 -0 -0 -0 -0 -1 -1 -0 0 -0 -0 -0 -0 -0 -0 -0 -0 -0 -0 -0 -0 -0 -0 -0 -0 -0 -0 -0 -0 -0 -0 0 0 0 0 0 1 1 1 0 nan
nan -0 -0 -0 -0 -0 -0 -1 -0 -0 -0 -1 -1 -0 -0 -0 -0 -0 -0 -0 -0 -0 -0 -0 -0 -0 -0 -0 -0 -0 -0 -0 -0 -0 -0 0 1 0 0 1 1 0 nan
nan -0 -0 -0 -0 -0 -0 -0 -0 -0 -0 -1 -1 -0 -0 -0 -0 -0 -0 -0 -0 -0 -0 -0 -0 -0 -0 -0 -0 -0 -0 -0 -0 -0 -0 -0 0 0 1 1 1 0 nan
nan nan nan nan nan nan nan nan nan nan nan nan nan nan nan nan nan nan nan nan nan nan nan nan nan nan nan nan nan nan nan nan nan nan nan nan nan nan nan nan nan nan nan
Wind_Speed
50 44 44 47 41 35 29 30 33 38 36 34 31 31 28 20 39 32 41 43 43 45 43 41 40 41 43 41 37 33 29 26 23 20 17 16 15 14 13 11 11 10 9
41 43 42 42 46 37 34 33 33 39 41 39 36 34 29 29 26 33 39 45 45 47 48 45 43 44 44 43 40 36 33 27 27 25 20 13 17 17 15 14 12 11 10
41 39 38 41 41 42 36 36 37 38 43 42 37 34 33 32 36 40 37 39 46 47 49 48 45 43 45 45 43 39 35 33 30 27 18 9 11 18 18 16 14 12 11
28 32 36 38 36 41 37 35 37 37 44 42 40 37 40 39 34 39 40 45 41 41 55 51 48 46 49 46 43 40 36 33 33 31 29 16 9 12 12 19 17 14 12
28 25 28 31 30 31 32 31 36 40 43 42 41 40 43 39 34 36 42 48 51 48 51 46 46 43 46 48 45 43 37 35 34 34 32 28 17 14 9 12 18 17 14
26 21 22 27 29 26 29 28 33 38 38 40 38 42 44 42 39 35 43 49 44 49 50 50 47 42 46 50 46 42 38 36 35 34 33 32 26 21 18 14 14 15 15
23 20 19 24 26 27 27 27 32 38 36 38 37 41 43 41 42 41 46 50 49 52 53 57 51 50 54 49 47 42 38 36 36 34 33 30 28 23 20 18 14 14 16
22 23 19 22 24 22 24 22 33 38 39 39 39 40 42 41 42 40 41 49 51 54 57 57 54 49 53 46 48 42 38 36 36 34 33 30 28 26 23 20 19 15 16
28 24 22 22 27 27 28 30 31 35 40 38 39 41 43 37 41 39 41 45 52 62 55 51 49 51 48 47 45 43 39 37 36 35 32 31 32 25 24 20 21 20 17
24 20 19 17 20 22 26 28 31 35 35 36 37 36 38 42 27 31 43 49 45 50 58 53 56 54 46 42 42 40 38 37 36 34 34 35 29 26 24 20 22 21 20
19 16 11 12 14 14 18 19 24 28 32 34 36 37 29 36 32 16 47 56 50 48 45 52 48 47 43 42 42 40 37 38 36 35 36 36 30 29 25 21 24 24 19
6 3 3 4 7 17 17 17 34 37 36 34 36 39 32 27 25 33 35 46 39 32 33 38 43 43 42 41 41 39 39 39 38 38 38 33 32 30 28 23 19 21 19
20 13 7 4 4 16 26 22 20 21 27 32 30 33 29 30 23 30 33 31 31 31 37 40 44 43 42 39 40 39 40 40 39 40 40 34 34 33 30 27 22 22 21
30 18 14 5 8 14 21 17 16 19 26 23 25 24 28 30 26 29 28 26 28 29 31 33 36 39 38 38 39 39 39 39 39 36 39 37 36 33 31 29 26 25 26
30 26 37 38 30 25 16 16 29 30 30 32 32 29 21 26 24 24 24 28 23 26 28 32 33 32 35 36 36 38 38 37 38 40 44 40 41 36 32 32 28 30 26
37 40 41 46 43 38 32 32 31 31 27 27 26 28 23 23 23 20 15 16 14 8 34 21 25 27 26 28 32 36 39 40 44 48 50 47 41 38 37 36 35 27 25
35 41 44 43 42 38 40 39 32 31 32 31 27 22 19 18 18 17 14 12 11 10 12 14 31 32 33 35 34 38 44 48 50 51 49 47 47 46 40 41 33 28 27
38 39 38 37 35 33 33 32 31 31 28 31 27 22 20 20 17 15 14 12 9 6 7 7 10 10 12 10 14 22 23 24 31 38 47 47 44 45 43 35 25 27 28
29 31 32 32 33 34 32 32 32 30 27 25 23 20 18 19 18 18 15 13 8 4 4 6 6 7 10 7 7 9 13 12 15 18 23 26 26 24 20 18 21 26 25
26 28 30 30 31 31 30 32 34 31 30 26 23 20 17 16 13 13 12 10 8 7 5 3 2 1 1 5 9 10 7 10 11 12 12 15 17 16 16 17 20 23 23
23 24 27 30 28 25 25 29 29 31 26 23 20 20 18 16 15 12 11 9 7 5 3 3 3 3 2 2 4 5 8 11 14 15 13 13 14 18 21 23 24 25 22
19 21 21 22 22 22 20 23 27 23 19 18 17 17 17 16 14 13 11 9 8 6 5 4 5 6 8 9 9 9 8 8 10 13 14 15 17 20 23 25 23 21 21
15 16 14 16 18 18 19 18 20 17 18 17 15 14 12 10 10 9 10 9 9 8 8 7 6 7 7 7 8 8 9 11 14 14 14 16 18 20 21 21 21 23 23
8 8 10 13 14 13 14 17 15 15 15 14 15 12 9 8 8 8 9 10 9 8 8 8 9 9 11 12 12 11 11 12 13 14 16 19 20 22 23 25 27 29 27
2 3 6 8 10 12 12 10 10 11 12 13 12 12 11 11 11 11 9 9 11 12 12 12 11 13 12 13 15 15 15 15 16 16 17 19 21 23 25 26 27 27 27
4 5 6 7 10 13 13 13 12 14 14 13 13 13 12 11 10 8 8 10 12 12 13 15 16 14 14 15 16 15 17 17 15 16 19 21 21 22 23 25 27 29 30
Wind_Direction
272 268 265 262 258 256 247 243 242 231 231 234 238 241 242 237 235 221 219 225 221 219 217 217 212 205 201 200 198 198 202 198 203 204 208 215 222 229 235 236 238 249 256
268 266 263 262 257 251 248 247 243 235 227 231 234 240 240 239 240 230 222 223 224 225 218 217 212 207 203 202 201 201 198 203 206 205 208 210 225 227 229 231 232 239 247
277 264 256 258 255 250 245 245 244 237 227 229 230 233 236 237 229 224 221 221 225 227 224 217 215 210 208 205 203 204 206 204 204 210 199 199 219 217 221 223 232 239 242
295 275 255 254 251 251 250 250 233 232 225 226 223 229 232 229 229 226 222 228 225 217 223 216 214 212 215 209 206 207 209 211 207 206 212 216 217 194 207 219 226 233 234
300 292 261 247 249 248 249 247 230 225 218 222 222 227 230 233 237 230 225 228 220 216 221 221 214 214 219 214 211 210 212 214 216 216 212 216 223 215 201 209 222 228 231
298 291 265 255 252 245 245 248 229 229 223 217 228 233 230 232 230 231 225 218 218 216 218 212 213 216 226 219 214 213 215 217 221 222 222 223 221 218 214 222 220 222 230
292 288 263 248 246 239 240 240 219 219 219 223 230 232 232 234 237 240 233 221 222 219 220 218 211 215 220 221 217 216 218 221 223 221 225 229 232 233 236 234 229 215 228
305 283 265 248 242 232 232 234 221 217 222 224 229 230 235 233 237 239 232 229 222 212 215 213 209 215 218 222 218 219 223 223 224 226 228 229 228 227 228 241 230 213 220
306 282 266 258 245 236 226 228 219 216 221 226 234 224 227 230 233 233 229 226 216 215 213 211 211 213 218 217 216 220 225 225 225 226 225 225 228 220 232 229 233 224 214
294 282 279 274 250 242 233 229 229 228 227 234 219 219 222 220 217 222 217 207 198 195 205 215 212 211 211 214 216 223 227 224 224 225 226 228 221 224 225 225 226 232 227
291 263 249 248 238 230 234 224 233 230 233 218 213 204 201 199 213 231 198 201 205 200 207 209 215 216 211 216 222 226 226 222 224 227 229 230 219 223 220 223 224 235 234
335 259 235 249 238 239 246 242 210 238 222 215 211 206 200 210 232 242 197 211 204 204 211 221 226 222 217 221 223 225 224 223 226 227 229 225 224 227 223 214 220 232 240
64 73 66 101 280 253 250 218 176 180 199 198 192 197 212 214 211 200 190 195 202 208 217 221 217 218 223 224 226 226 227 228 232 231 229 222 223 223 223 221 214 226 239
61 54 42 70 137 139 137 134 149 121 124 131 158 198 213 209 191 191 191 195 200 213 217 221 221 223 228 231 228 230 232 233 234 239 241 229 227 228 226 225 231 232 237
40 44 56 64 79 98 124 130 114 101 95 100 100 96 99 124 133 165 191 197 202 208 218 223 226 229 233 234 234 236 236 236 238 240 240 232 232 230 233 234 237 239 228
36 47 50 68 71 82 85 104 98 93 98 98 96 91 95 81 97 101 108 165 171 217 214 204 218 224 228 233 240 243 246 248 242 244 241 233 229 230 231 236 237 226 238
37 50 59 68 66 68 77 85 86 90 87 89 88 76 78 95 97 106 120 130 149 177 196 196 224 237 244 245 242 244 252 252 250 241 235 232 236 232 232 240 232 235 231
50 59 63 68 76 81 84 91 92 88 89 89 83 84 87 90 94 97 98 108 116 144 160 178 193 197 214 235 245 241 246 251 250 241 233 230 237 237 232 222 217 226 227
58 62 68 71 73 75 80 84 83 88 94 89 89 91 96 100 105 105 103 100 97 113 113 151 181 233 231 249 262 260 264 254 247 248 250 250 239 226 221 232 236 236 237
56 60 64 65 66 68 70 71 71 72 73 76 81 87 87 85 83 84 90 93 101 103 94 72 61 63 269 267 273 279 288 277 257 245 227 232 230 226 234 230 234 244 248
61 60 59 60 60 60 62 66 67 63 60 61 67 70 71 71 74 74 75 76 74 59 41 26 350 340 326 304 269 273 280 284 280 280 264 247 242 254 247 239 238 244 246
62 59 60 65 66 62 61 68 63 58 54 53 52 53 51 49 51 49 51 51 53 53 54 30 358 342 331 325 314 298 273 263 267 263 262 263 261 259 251 248 249 242 234
59 55 51 51 53 51 44 48 56 48 42 38 37 40 40 35 31 31 26 25 26 25 25 15 4 353 344 332 325 314 301 291 282 276 263 254 254 253 253 255 248 242 241
61 58 51 47 45 44 40 39 35 31 26 22 18 16 12 16 10 13 9 355 347 346 346 344 344 344 335 325 319 318 310 297 286 276 269 263 256 254 253 246 241 241 242
65 39 36 30 21 20 20 19 12 13 9 3 1 2 1 0 357 354 355 348 342 335 333 326 320 317 315 312 311 306 306 313 303 289 276 269 264 261 259 254 250 248 247
337 349 349 350 354 5 4 359 359 357 354 354 358 3 1 359 353 346 339 339 331 319 313 310 306 303 302 302 299 298 300 303 302 291 288 284 276 272 268 264 263 258 256
Height
1435 1440 1441 1442 1446 1450 1453 1455 1459 1463 1469 1473 1477 1480 1482 1487 1492 1490 1499 1505 1510 1513 1518 1522 1528 1531 1532 1537 1543 1547 1552 1555 1559 1562 1566 1567 1568 1568 1568 1569 1570 1570 1570
1429 1428 1430 1433 1433 1440 1444 1447 1450 1454 1459 1465 1470 1474 1480 1482 1485 1489 1492 1498 1503 1508 1511 1514 1521 1526 1529 1533 1538 1543 1547 1552 1555 1558 1563 1565 1567 1566 1566 1566 1568 1567 1568
1421 1420 1421 1421 1425 1429 1434 1438 1442 1446 1450 1456 1463 1467 1472 1476 1480 1484 1486 1490 1496 1501 1505 1509 1516 1522 1527 1528 1534 1539 1543 1546 1551 1554 1558 1560 1560 1561 1563 1564 1565 1565 1565
1415 1411 1411 1413 1415 1418 1424 1428 1431 1436 1442 1448 1454 1457 1460 1465 1471 1475 1479 1483 1489 1494 1499 1504 1510 1515 1525 1526 1530 1535 1538 1543 1546 1550 1553 1555 1556 1557 1559 1561 1562 1563 1563
1408 1404 1402 1403 1407 1411 1415 1418 1423 1427 1432 1438 1444 1450 1453 1458 1464 1468 1471 1476 1481 1485 1492 1495 1505 1512 1519 1522 1527 1531 1534 1538 1542 1545 1548 1551 1553 1554 1555 1556 1559 1560 1560
1400 1397 1397 1398 1401 1404 1408 1410 1414 1420 1425 1431 1437 1441 1446 1451 1455 1460 1466 1469 1475 1478 1484 1492 1499 1507 1513 1517 1523 1528 1530 1533 1538 1541 1544 1547 1549 1550 1552 1554 1554 1556 1557
1396 1392 1391 1393 1395 1397 1400 1403 1408 1414 1420 1426 1430 1434 1438 1443 1448 1452 1456 1460 1464 1467 1475 1483 1490 1497 1505 1512 1520 1523 1526 1530 1533 1537 1539 1544 1545 1548 1550 1550 1550 1552 1553
1391 1389 1387 1388 1390 1391 1395 1398 1402 1408 1413 1417 1422 1426 1430 1434 1439 1443 1446 1449 1453 1456 1465 1476 1484 1491 1499 1507 1514 1518 1521 1525 1528 1532 1536 1539 1541 1543 1545 1545 1546 1547 1550
1386 1381 1380 1382 1383 1385 1388 1392 1395 1399 1404 1409 1413 1418 1424 1427 1431 1434 1439 1442 1447 1451 1459 1470 1477 1486 1494 1501 1507 1511 1515 1519 1523 1527 1530 1533 1535 1539 1541 1539 1542 1543 1544
1379 1380 1378 1377 1379 1383 1386 1388 1391 1393 1397 1401 1405 1411 1416 1422 1426 1426 1429 1436 1440 1444 1455 1465 1472 1480 1487 1495 1501 1506 1510 1513 1517 1521 1524 1526 1530 1534 1536 1536 1538 1540 1540
1369 1370 1372 1372 1375 1380 1382 1386 1385 1390 1391 1394 1398 1404 1409 1417 1421 1424 1422 1428 1438 1442 1452 1459 1467 1474 1480 1488 1495 1499 1504 1508 1512 1516 1519 1521 1526 1528 1529 1530 1533 1535 1534
1369 1369 1372 1371 1375 1371 1375 1379 1385 1377 1384 1388 1393 1401 1407 1412 1416 1418 1420 1425 1436 1444 1453 1460 1465 1469 1477 1483 1488 1492 1497 1502 1505 1510 1513 1516 1521 1523 1523 1523 1525 1529 1529
1374 1376 1376 1378 1373 1372 1371 1372 1372 1378 1382 1385 1391 1399 1405 1411 1414 1416 1420 1429 1436 1443 1451 1457 1461 1467 1473 1478 1483 1488 1493 1497 1499 1505 1505 1510 1512 1515 1517 1519 1516 1521 1521
1381 1383 1380 1380 1379 1372 1372 1374 1379 1379 1379 1383 1389 1398 1402 1406 1412 1416 1422 1430 1436 1442 1450 1457 1462 1466 1471 1476 1480 1485 1489 1493 1496 1498 1502 1504 1506 1509 1511 1513 1513 1512 1516
1397 1391 1380 1378 1377 1375 1380 1383 1384 1388 1390 1391 1394 1398 1403 1402 1408 1415 1424 1430 1436 1444 1450 1456 1459 1463 1469 1473 1477 1482 1484 1487 1489 1493 1496 1496 1497 1499 1503 1506 1505 1506 1507
1402 1396 1390 1386 1384 1386 1387 1390 1392 1397 1400 1402 1404 1407 1409 1411 1417 1421 1427 1431 1439 1442 1446 1452 1456 1461 1466 1469 1473 1476 1479 1480 1483 1486 1487 1488 1489 1491 1493 1495 1494 1495 1501
1414 1407 1404 1403 1400 1401 1400 1400 1403 1406 1407 1411 1415 1416 1421 1424 1427 1430 1433 1436 1438 1443 1446 1447 1453 1458 1460 1465 1466 1469 1470 1472 1473 1476 1478 1479 1482 1480 1481 1483 1483 1488 1490
1425 1422 1420 1416 1417 1418 1416 1416 1416 1417 1419 1420 1422 1426 1429 1430 1433 1436 1438 1440 1442 1445 1447 1449 1453 1455 1456 1458 1460 1460 1460 1460 1464 1466 1466 1469 1471 1472 1475 1474 1473 1482 1486
1440 1436 1433 1432 1431 1429 1430 1427 1424 1425 1426 1427 1430 1432 1434 1435 1437 1439 1441 1444 1447 1450 1450 1451 1452 1453 1454 1456 1456 1457 1458 1459 1459 1459 1461 1463 1464 1468 1471 1474 1477 1481 1482
1448 1445 1442 1440 1438 1437 1437 1433 1433 1435 1435 1437 1439 1441 1441 1442 1443 1444 1444 1445 1446 1448 1449 1451 1451 1451 1452 1453 1453 1456 1457 1457 1458 1458 1459 1461 1464 1465 1468 1471 1475 1478 1478
1456 1453 1449 1447 1447 1448 1446 1443 1444 1441 1445 1444 1446 1446 1445 1445 1446 1449 1450 1449 1449 1451 1452 1450 1451 1452 1452 1450 1451 1452 1453 1453 1456 1456 1457 1460 1462 1464 1465 1468 1467 1470 1474
1461 1458 1457 1458 1458 1456 1457 1456 1451 1452 1453 1451 1451 1451 1450 1449 1449 1449 1450 1451 1452 1451 1449 1449 1450 1452 1453 1453 1453 1452 1449 1449 1452 1452 1454 1457 1460 1461 1461 1462 1464 1464 1468
1464 1463 1465 1463 1460 1459 1457 1459 1458 1461 1459 1456 1457 1456 1455 1457 1456 1452 1453 1454 1453 1453 1453 1452 1451 1450 1450 1452 1452 1449 1449 1449 1449 1449 1450 1451 1454 1454 1455 1457 1459 1460 1462
1469 1469 1467 1465 1465 1466 1465 1461 1462 1462 1462 1462 1461 1461 1462 1460 1461 1456 1454 1456 1455 1454 1454 1452 1451 1450 1451 1451 1450 1450 1449 1448 1448 1447 1446 1446 1447 1449 1450 1450 1450 1452 1453
1470 1469 1467 1467 1468 1466 1464 1465 1465 1465 1463 1463 1466 1464 1461 1458 1457 1455 1453 1454 1453 1454 1452 1452 1450 1449 1449 1449 1449 1447 1446 1444 1444 1444 1443 1443 1443 1442 1442 1443 1444 1445 1446
1470 1469 1469 1468 1469 1467 1466 1467 1464 1464 1464 1464 1462 1458 1458 1457 1457 1456 1454 1450 1450 1451 1450 1447 1448 1445 1443 1446 1445 1445 1443 1440 1440 1440 1439 1440 1440 1438 1438 1438 1438 1438 1439